Location: Almanza
(14.4833°N, 120.9833°E)
Time: 07:13:45
(UTC+00:00)

Daily predictions for brighter satellites

Satellite Brightness Start Highest point End
(mag) Time Altitude Azimuth Time Altitude Azimuth Time Altitude Azimuth
H-2A R/B 3.3 12:00:37 10° S 12:05:34 40° W 12:10:25 10° NNW
CZ-2C R/B 3.8 12:01:02 10° N 12:05:53 42° WNW 12:10:51 10° SW
GPS 2-17 Rocket1 3.9 12:05:09 10° WNW 12:09:15 37° N 12:09:33 37° N
Delta 202 4.0 12:05:29 10° W 12:11:37 58° N 12:12:45 48° NE
Yuri Rocket 3.4 12:09:24 10° WSW 12:13:23 56° NW 12:13:23 56° NW
MetOp-A 4.0 12:20:49 81° NNE 12:20:49 81° NNE 12:25:58 10° N
Cosmos 1140 Rocket 3.7 12:21:55 63° N 12:21:55 63° N 12:26:17 10° NNE
Cosmos 1833 Rocket 3.7 12:16:10 10° SW 12:21:29 45° WNW 12:26:49 10° N
Cosmos 1805 Rocket 4.3 12:23:31 52° WNW 12:23:31 52° WNW 12:27:23 10° N
ATLAS 5 CENTAUR R/B 4.3 12:27:01 10° NNE 12:29:33 18° NE 12:29:33 18° NE
Cosmos 1727 Rocket 3.9 12:26:55 10° N 12:33:17 88° W 12:33:20 88° WSW
Cosmos 1867 4.1 12:28:06 10° SW 12:33:22 55° WNW 12:38:40 10° NNE
Resurs 01 Rocket 4.4 12:57:15 13° N 12:57:15 13° N 12:57:39 10° N
Cosmos 2082 Rocket 4.1 13:12:05 21° W 13:13:57 25° WNW 13:18:36 10° NNW
VEP-3 4.0 13:29:40 10° WNW 14:14:25 14° ESE 22:33:08 10° ESE
ATLAS 2A CENTAUR R/B 4.0 13:09:17 10° WSW 13:38:51 71° WSW 13:38:51 71° WSW
Atlas Centaur 2 3.3 19:09:31 48° N 19:09:31 48° N 19:16:44 10° NE
SeaSat 1 4.1 19:20:21 10° N 19:22:31 26° N 19:22:31 26° N
Cosmos 1844 Rocket 3.1 19:26:42 58° E 19:26:42 58° E 19:32:02 10° NNE
ATLAS CENTAUR R/B 4.0 19:31:39 13° N 19:31:39 13° N 19:32:11 10° N
PAYLOAD A 4.3 19:27:31 10° NNE 19:32:06 64° NE 19:32:06 64° NE
ATLAS 3B CENTAUR R/B 4.2 19:26:51 14° WNW 19:34:53 32° N 19:39:55 10° ENE
Cosmos 1417 Rocket 4.4 19:40:19 70° WNW 19:40:19 70° WNW 19:46:25 10° N
Delta 7925 Rocket 4.4 19:45:34 48° WNW 19:47:04 58° NNW 19:53:01 10° ENE
Cosmos 1300 3.5 19:51:03 47° NE 19:51:03 47° NE 19:53:59 10° NNE
Cosmos 2058 Rocket 3.5 19:50:49 51° SE 19:51:37 61° E 19:56:02 10° NNE
NOSS 2-2 (C) 4.4 19:55:22 35° N 19:55:22 35° N 19:57:33 10° NNE
deb Chang Zheng 4 3.5 19:51:28 10° NNE 19:55:49 85° ESE 19:55:51 84° ESE
GPS 2-12 Rocket1 4.4 19:56:18 29° SSE 19:56:18 29° SSE 20:00:23 10° E
Cosmos 1328 4.2 19:52:42 10° N 19:56:38 61° E 19:57:16 53° SE
ARIANE 5 R/B 3.4 19:55:58 39° SSW 19:57:52 48° S 20:29:35 10° ESE
ARIANE 5 R/B 3.4 19:55:58 39° SSW 19:57:52 48° S 20:29:36 10° ESE
ARIANE 5 R/B 3.4 19:55:58 39° SSW 19:57:53 48° S 20:29:35 10° ESE
Intelsat 5-1 Rocket 4.4 19:55:59 38° SW 20:00:54 79° SSE 20:31:28 10° ENE
Cosmos 1703 3.7 19:58:20 10° N 20:01:25 54° NNW 20:01:25 54° NNW
Ariane H10+ 3.9 19:56:38 33° WSW 20:03:15 51° S 20:09:28 10° ESE
Ariane H10 4.2 20:03:14 24° S 20:03:46 25° SSE 20:10:44 10° ESE
Ariane H10-3 4.4 20:02:05 25° SSW 20:04:12 29° SSE 20:22:33 10° ESE
Cosmos 1943 3.7 20:00:33 10° N 20:06:05 60° ENE 20:11:37 10° SSE
H-2A R/B 2.2 20:09:41 49° NW 20:09:41 49° NW 20:12:57 10° NNW
Cosmos 1758 Rocket 3.3 20:05:40 10° N 20:09:57 71° W 20:10:53 52° SSW
ASTRO F (AKARI) 4.3 20:13:44 10° NNE 20:16:48 72° ESE 20:17:10 62° SSE
CZ-4B R/B 3.3 20:14:20 10° SE 20:17:22 31° ENE 20:20:19 10° NNE
CZ-2C R/B 2.8 20:13:21 10° N 20:17:35 37° WNW 20:17:38 37° WNW
SL-08 ROCKET BODY 4.3 20:11:35 10° N 20:17:35 90° E 20:23:28 10° S
ALOS 2.8 20:14:47 10° NNE 20:19:23 59° E 20:23:58 10° S
Meteor 1-31 Rocket 3.0 20:17:42 10° NNE 20:21:30 65° E 20:24:25 16° S
Cosmos 883 Rocket 4.4 20:17:31 17° SSW 20:22:20 66° W 20:28:30 10° N
Cosmos 1386 Rocket 4.3 20:19:22 10° N 20:25:23 88° W 20:31:25 10° S
Cosmos 1484 Rocket 2.6 20:21:48 10° NNE 20:25:30 83° E 20:28:03 19° S
ERS-2 2.9 20:27:20 33° WNW 20:27:20 33° WNW 20:29:54 10° NNW
GPS 2-15 Rocket1 3.1 20:24:20 29° WNW 20:26:49 89° NNE 20:31:47 10° ESE
ADEOS 3.7 20:22:30 10° N 20:27:33 51° WNW 20:30:30 24° SW
Cosmos 1844 4.2 20:25:42 30° WSW 20:27:49 41° WNW 20:33:15 10° N
Hubble Space Telescope 2.4 20:26:52 19° NW 20:28:28 24° NNW 20:31:51 10° NE
ASC 2 Rocket 4.5 20:30:01 19° SSW 20:30:01 19° SSW 20:32:44 10° SSE
GPS 2-18 Rocket1 4.3 20:28:27 19° NW 20:30:29 33° N 20:33:49 10° ENE
Cosmos 1825 Rocket 3.7 20:27:32 10° NNW 20:31:39 46° W 20:35:05 14° SSW
Meteor 1-11 4.1 20:28:59 10° N 20:34:39 72° W 20:40:14 10° S
FENGYUN 3A 3.6 20:32:26 10° N 20:37:48 80° WNW 20:43:10 10° SSW
Cosmos 1953 Rocket 3.5 20:34:32 10° NNW 20:38:58 65° W 20:43:20 10° S
Lacrosse 5 rocket 3.0 20:35:14 10° S 20:39:13 34° ESE 20:43:20 10° NE
Cosmos 1745 Rocket 4.0 20:34:00 10° NNW 20:40:03 57° W 20:46:04 10° S
Cosmos 2278 Rocket 2.8 20:47:07 10° S 20:52:41 60° ESE 20:58:14 10° NNE
Cosmos 494 Rocket 4.2 20:48:58 10° N 20:54:08 74° ENE 20:59:20 10° SSE
OAO 3 Copernicus 4.3 20:52:21 17° WSW 20:56:16 74° NNW 21:01:17 10° NE
Atlas Centaur 2 4.4 20:53:26 10° WNW 20:59:49 28° N 21:06:49 10° NE
SAR-Lupe-4 3.9 20:58:23 10° S 21:01:44 40° W 21:05:05 10° NNW
SJ-12 4.0 21:00:28 10° N 21:04:26 57° WNW 21:08:23 10° SSW
USA 267 3.9 20:58:05 10° SE 21:04:30 62° NE 21:10:55 10° NNW
Cosmos 1932 4.5 21:00:56 10° NNW 21:07:17 88° WSW 21:13:30 10° SSE
Ariane H10+ 4.3 20:46:30 10° W 21:11:11 32° SSW 21:16:05 10° SE
SL-4 R/B 1.9 21:10:02 10° NW 21:13:21 46° SW 21:16:50 10° SSE
Cosmos 1709 Rocket 4.2 21:14:50 10° NNW 21:20:38 47° W 21:26:26 10° SSW
Ariane H10+ 4.2 21:16:27 10° W 21:43:53 51° SSW 21:48:27 10° ESE
